This is the latest recevied weather packets stored in our database for station/object KC3DGM. If no packets are shown the sender has not sent any weather packets the latest 10 day(s).
| Time | Temp. | Humidity | Pressure | Rain* | Wind** | Luminosity | Snow |
|---|---|---|---|---|---|---|---|
| 1777662216 | 6.11° C | 93% | 983.4 hPa | 0 mm | - | 108 W/m² | - |
| 1777661911 | 5.56° C | 93% | 983.6 hPa | 1.78 mm | - | 116 W/m² | - |
| 1777661608 | 5.56° C | 93% | 983.3 hPa | 1.78 mm | - | 98 W/m² | - |
| 1777661304 | 6.11° C | 93% | 983.3 hPa | 1.27 mm | - | 89 W/m² | - |
| 1777661000 | 6.11° C | 93% | 983.4 hPa | 1.27 mm | - | 72 W/m² | - |
| 1777660695 | 5.56° C | 93% | 983.6 hPa | 1.78 mm | - | 61 W/m² | - |
| 1777660393 | 6.11° C | 93% | 983.6 hPa | 1.78 mm | - | 68 W/m² | - |
| 1777660089 | 5.56° C | 93% | 983.4 hPa | 1.27 mm | - | 83 W/m² | - |
| 1777659786 | 5.56° C | 93% | 983.4 hPa | 1.27 mm | - | 57 W/m² | - |
| 1777659483 | 5.56° C | 93% | 983.5 hPa | 0 mm | - | 43 W/m² | - |
| 1777659180 | 5.56° C | 93% | 983.1 hPa | 1.78 mm | - | 49 W/m² | - |
| 1777658878 | 5.56° C | 93% | 983.3 hPa | 1.78 mm | - | 51 W/m² | - |
| 1777658573 | 5.56° C | 93% | 983.4 hPa | 1.78 mm | - | 53 W/m² | - |
| 1777658270 | 6.11° C | 93% | 983.4 hPa | 3.05 mm | - | 76 W/m² | - |
| 1777657967 | 5.56° C | 93% | 983.3 hPa | 3.05 mm | - | 61 W/m² | - |
| 1777657664 | 5.56° C | 92% | 983.2 hPa | 3.05 mm | - | 52 W/m² | - |
| 1777657361 | 5.56° C | 93% | 983.2 hPa | 3.05 mm | - | 47 W/m² | - |
| 1777657059 | 5.56° C | 92% | 983.4 hPa | 1.27 mm | - | 54 W/m² | - |
| 1777656756 | 5.56° C | 92% | 983.4 hPa | 3.05 mm | - | 51 W/m² | - |
| 1777656452 | 6.11° C | 93% | 983.5 hPa | 3.05 mm | - | 78 W/m² | - |
| 1777656147 | 6.11° C | 93% | 983.4 hPa | 3.05 mm | - | 77 W/m² | - |
| 1777655843 | 5.56° C | 93% | 983.6 hPa | 4.83 mm | - | 76 W/m² | - |
| 1777655540 | 6.11° C | 93% | 983.6 hPa | 3.05 mm | - | 76 W/m² | - |
| 1777655237 | 5.56° C | 92% | 983.6 hPa | 1.78 mm | - | 74 W/m² | - |
| 1777654934 | 6.11° C | 92% | 983.5 hPa | 3.05 mm | - | 72 W/m² | - |
* Rain latest hour (hover to see other rain measurements)
** Current wind speed in m/s (hover to see current wind gust speed)